CDT,Max TemperatureF,Mean TemperatureF,Min TemperatureF,Max Dew PointF,MeanDew PointF,Min DewpointF,Max Humidity, Mean Humidity, Min Humidity, Max Sea Level PressureIn, Mean Sea Level PressureIn, Min Sea Level PressureIn, Max VisibilityMiles, Mean VisibilityMiles, Min VisibilityMiles, Max Wind SpeedMPH, Mean Wind SpeedMPH, Max Gust SpeedMPH,PrecipitationIn, CloudCover, Events, WindDirDegrees
2013-5-1,43,36,28,25,22,19,72,59,46,30.63,30.42,30.12,10,10,10,25,13,31,0.00,5,,329
2013-5-2,42,34,25,27,23,21,88,70,51,30.74,30.66,30.56,10,10,6,20,10,28,0.00,5,,353
2013-5-3,54,39,23,25,23,20,88,60,32,30.57,30.41,30.27,10,10,10,20,11,26,0.00,0,,20
2013-5-4,52,46,40,39,31,23,86,66,45,30.30,30.28,30.24,10,10,8,22,11,26,0.05,8,Rain,29
2013-5-5,51,45,39,42,38,36,92,79,66,30.28,30.22,30.13,10,10,7,13,6,16,0.09,8,Rain,22
2013-5-6,69,58,46,47,43,41,86,63,40,30.16,30.10,30.02,10,10,10,8,2,12,0.00,5,,125
2013-5-7,80,62,43,46,43,40,92,59,25,30.04,29.97,29.87,10,9,4,24,9,30,0.00,0,,170
2013-5-8,78,62,46,47,43,36,76,55,33,30.08,29.99,29.92,10,10,10,24,10,30,T,4,Rain,352
2013-5-9,69,55,41,35,30,25,65,42,19,30.17,30.13,30.10,10,10,10,25,15,32,0.00,0,,27
2013-5-10,72,55,37,37,31,21,85,56,26,30.18,30.07,29.87,10,10,10,41,16,48,T,1,,199
2013-5-11,54,43,32,29,21,13,70,46,22,30.32,30.26,30.15,10,10,10,35,21,43,0.00,1,,345
2013-5-12,64,44,24,21,17,13,63,39,15,30.29,30.19,30.02,10,10,10,16,5,21,0.00,0,,296
2013-5-13,93,72,50,43,30,21,39,27,14,30.01,29.76,29.56,10,10,10,29,17,37,0.00,1,,180
2013-5-14,87,69,50,54,43,34,78,48,18,29.78,29.59,29.47,10,10,5,41,18,49,0.05,1,Rain,251
2013-5-15,85,66,46,44,38,33,76,46,16,29.86,29.81,29.75,10,10,10,24,9,30,0.00,1,,263
2013-5-16,79,63,47,51,41,34,67,45,22,29.94,29.89,29.86,10,10,9,26,10,32,0.01,4,Rain,54
2013-5-17,76,65,54,54,46,34,72,52,31,29.92,29.88,29.85,10,10,10,20,13,25,0.00,6,,116
2013-5-18,84,71,58,64,58,53,93,67,40,29.85,29.80,29.72,10,8,2,18,9,22,0.39,6,Rain,119
2013-5-19,77,68,58,64,59,55,93,76,58,29.71,29.62,29.55,10,7,1,24,13,31,0.97,7,Rain,62
2013-5-20,64,60,55,58,56,52,93,86,78,29.57,29.48,29.44,10,6,1,21,12,26,0.57,8,Rain,76
2013-5-21,55,52,49,51,47,44,93,85,77,29.87,29.70,29.56,10,8,2,26,17,32,0.29,8,Rain,31
2013-5-22,73,61,48,48,43,30,86,54,22,30.09,29.93,29.85,10,10,10,28,16,35,T,5,Rain,33
2013-5-23,70,58,46,43,34,26,71,46,21,30.32,30.25,30.12,10,10,10,16,9,22,0.00,0,,91
2013-5-24,69,59,48,48,39,32,83,56,29,30.29,30.22,30.14,10,10,9,29,16,38,0.02,4,Rain,140
2013-5-25,72,63,54,51,49,48,77,65,53,30.17,30.12,30.08,10,10,10,26,17,36,T,6,,145
2013-5-26,63,59,54,48,45,42,72,60,48,30.15,30.09,30.01,10,10,10,28,15,37,0.00,7,,136
2013-5-27,72,64,55,56,50,46,77,65,53,30.02,29.88,29.79,10,10,10,20,10,24,T,8,,139
2013-5-28,75,67,58,56,54,52,87,68,49,29.79,29.69,29.62,10,8,1,21,13,26,T,6,Rain,162
2013-5-29,72,65,57,61,58,53,93,80,66,29.69,29.64,29.57,10,5,1,24,11,28,3.77,6,Rain,102
2013-5-30,79,71,62,64,61,59,93,73,52,29.60,29.46,29.38,10,8,1,28,13,35,0.85,7,Rain,115
2013-5-31,64,62,59,61,56,52,90,81,72,29.57,29.42,29.32,10,9,1,20,12,25,0.11,7,Rain,108